Regional Weather Roundup
Issued by NWS

Home | Current Version | Previous Version | Text Only | Print | Product List | Glossary On
Versions: 1 2 3 4 5 6 7 8 9 10 11 12 13 14 15 16 17 18 19 20 21 22 23 24 25 26 27 28 29 30 31 32 33 34 35 36 37 38 39 40 41 42 43 44 45 46 47 48 49 50
000
ASUS44 KEWX 282303
RWRTX
SOUTH TEXAS REGIONAL WEATHER ROUNDUP
NATIONAL WEATHER SERVICE AUSTIN/SAN ANTONIO TX
600 PM CDT SUN MAY 28 2017

NOTE: "FAIR" INDICATED FEW OR NO CLOUDS BELOW 12,000 FEET WITH NO
SIGNIFICANT WEATHER AND/OR OBSTRUCTIONS TO VISIBILITY.

* - THESE STATIONS ARE NOT NWS OR FAA STATIONS...AND ARE NOT SUBJECT
    TO NWS AND FAA QUALITY CONTROL.

TXZ171-172-183>190-290000-
TEXAS HILL COUNTRY AND EDWARDS PLATEAU

CITY           SKY/WX    TMP DP  RH WIND       PRES   REMARKS
JUNCTION       LGT RAIN  78  67  68 NE14G20   29.95R
*LLANO         CLOUDY    79  70  73 NE10      29.97R
BURNET         CLOUDY    75  69  81 VRB7G17   29.95R THUNDER
*HORSESHOE BAY NOT AVBL
*KERRVILLE     CLOUDY    83  74  72 SE8       29.91R HX  90
*FREDERICKSBRG TSTM      75  71  88 N10G16    29.94R
*ROCKSPRINGS   CLOUDY    70  66  88 E7        29.98S
*BOERNE STAGE  CLOUDY    82  70  65 E3        29.90F
*CASTROVILLE   CLOUDY    88  70  55 E5        29.86R HAZE    HX  93
HONDO          CLOUDY    87  74  64 NE7       29.86R HX  95
*UVALDE        CLOUDY    85  74  70 NE8       29.85F HX  92
DEL RIO        CLOUDY    80  63  55 NE15G25   29.84R
LAUGHLIN AFB   TSTM      84  73  70 N8G17     29.84F HX  91
CARRIZO SPRGS  MOSUNNY   97  63  32 SE7       29.77R HX  98
*EAGLE PASS    NOT AVBL
$$

TXZ173-191>194-202-209-217>225-228-290000-
CENTRAL AND SOUTH CENTRAL TEXAS

CITY           SKY/WX    TMP DP  RH WIND       PRES   REMARKS
GEORGETOWN     TSTM      81  72  74 NW16G23   29.91R
AUSTIN/BERGSTM CLOUDY    89  73  59 S5        29.85R HX  97
AUSTIN/MABRY   CLOUDY    89  72  56 CALM      29.87R HX  96
*AUSTIN/EXEC   CLOUDY    88  73  62 CALM      29.87R HX  96
*LAGO VISTA    TSTM      80  73  80 N15G21    29.93R
SAN MARCOS       N/A    N/A N/A N/A SE10        N/A  FOG
NEW BRAUNFELS  CLOUDY    88  74  63 SE8       29.85R HX  96
RANDOLPH AFB   CLOUDY    87  75  67 SE9       29.85R HX  96
PT SAN ANTONIO CLOUDY    89  73  58 E9        29.82S HX  97
SAN ANTONIO    CLOUDY    87  72  60 SE13      29.85S HX  93
STINSON FIELD  CLOUDY    90  73  57 SE12      29.81F HX  98
*LA GRANGE     MOSUNNY   92  76  60 SE10      29.82F HX 104
*GIDDINGS      SUNNY     88  72  59 S7        29.85S HX  95
*GONZALES      PTSUNNY   89  77  67 SE7       29.84R HX 100
$$

TXZ163>164-176>182-195>201-210>213-226-227-235-290000-
SOUTHEAST TEXAS

CITY           SKY/WX    TMP DP  RH WIND       PRES   REMARKS
COLLEGE STN    SUNNY     89  75  63 S12       29.82F HX  99
*BRYAN         CLOUDY    87  74  63 S12       29.83F HX  95
*CALDWELL      NOT AVBL
*CROCKETT      MOSUNNY   86  75  70 SE8G18    29.84F HX  95
*BRENHAM       SUNNY     91  73  57 S13G18    29.83F HX  99
HUNTSVILLE     PTSUNNY   88  73  61 S13G22    29.82F HX  95
CONROE         MOSUNNY   88  74  63 SE17      29.82F HX  96
HOUSTON BUSH   PTSUNNY   87  75  67 SE18      29.83F HX  96
HOUSTON HOBBY  PTSUNNY   87  76  69 S10       29.84F HX  97
*HOUSTON SW AP PTSUNNY   84  76  76 SE10G16   29.86F HX  92
PEARLAND       MOSUNNY   87  75  67 SE13      29.86F HX  96
HOUSTON HOOKS  MOSUNNY   88  74  63 S8        29.82F HX  96
ELLINGTON FLD  PTSUNNY   86  75  70 SE13      29.88F HX  95
SUGAR LAND     MOSUNNY   88  77  69 SE18      29.84F HX 100
*HOUSTON EXEC  MOSUNNY   91  75  59 S17       29.84F HAZE    HX 102
*CLEVELAND MUN MOSUNNY   87  76  69 S13G20    29.82F HX  98
*WHARTON       MOSUNNY   86  72  62 SE15      29.85F HX  92
*COLUMBUS      FAIR      87  73  63 SE12      29.85S HX  95
*EAGLE LAKE    PTCLDY    89  78  68 S13       29.84F HX 103
$$

TXZ214>216-236>238-290000-
THE UPPER TEXAS COAST

CITY           SKY/WX    TMP DP  RH WIND       PRES   REMARKS
*ORANGE        PTSUNNY   85  76  76 S10       29.88F HAZE    HX  94
PORT ARTHUR    MOSUNNY   85  75  72 S12       29.86F HX  93
GALVESTON      PTSUNNY   85  79  82 SE16      29.88F HX  98
ANGLETON       CLOUDY    85  76  74 S13       29.86F HX  94
*BAY CITY      PTSUNNY   86  76  74 SE10      29.86F HX  96
PALACIOS       MOSUNNY   83  76  79 SE18      29.84F HX  91
$$

TXZ229>234-239>247-290000-
TEXAS COASTAL BEND AND RIO GRANDE PLAINS

CITY           SKY/WX    TMP DP  RH WIND       PRES   REMARKS
VICTORIA       PTSUNNY   88  74  63 S16       29.85F HX  96
*BEEVILLE      CLOUDY    87  77  71 SE13G26   29.83R HX  98
ROCKPORT       MOSUNNY   86  77  74 SE20G29   29.80F HX  97
*PORT ARANSAS  PTSUNNY   83  78  82 SE16G23   29.81F HX  93
*PORT LAVACA   PTSUNNY   85  78  80 S16       29.84F HX  97
*INGLESIDE     MOSUNNY   87  78  75 MISG      29.80F HX 100
CORPUS CHRISTI PTSUNNY   87  78  74 SE17G30   29.79F HX 100
CORPUS NAS     PTSUNNY   87  80  79 SE26G32   29.80F HX 103
*ROBSTOWN      PTSUNNY   88  76  68 SE25G31   29.80F HX  99
ALICE          PTSUNNY   90  75  61 SE16G31   29.78F HX 100
KINGSVILLE NAS PTSUNNY   88  78  72 SE25G33   29.78F HX 101
COTULLA        MOSUNNY   97  69  40 SE13      29.77R HX 103
*FAITH RANCH   MOSUNNY   99  66  34 VRB7      29.78R HX 102
LAREDO         MOSUNNY  101  73  40 SE20      29.71F HX 112
$$

TXZ248>255-290000-
DEEP SOUTH TEXAS

CITY           SKY/WX    TMP DP  RH WIND       PRES   REMARKS
BROWNSVILLE    CLOUDY    88  78  72 E17       29.81F HX 101
PORT ISABEL    CLOUDY    85  79  82 E18G26    29.81F HX  98
*SOUTH PADRE   NOT AVBL
HARLINGEN      PTSUNNY   89  79  72 E22       29.78F HX 104
*HEBBRONVILLE  PTSUNNY   94  73  49 SE22G28   29.78F HX 103
MCALLEN        PTSUNNY   95  75  52 SE22G29   29.77S HX 107
*WESLACO       PTSUNNY   92  76  57 SE17G26   29.77S HX 104
FALFURRIAS     MOSUNNY   91  75  59 SE20G29   29.77F HX 102
EDINBURG       CLOUDY    94  73  49 SE20      29.76F HX 103
*ZAPATA        CLOUDY    98  70  40 E10G23    29.70F HX 104
$$

TXZ213>215-236>238-242>244-246-247-251-254-255-290000-
CMAN STATIONS

STATION/POSITION TIME  TEMP    WIND        PRES    WAVE
                       AIR SEA DIR/SP/G            HT/PER
                 (UTC) (F)     (DEG/KT/KT) (MB)    (FT/S)
SABINE PASS      2230   83 84  170/ 12/ 16 1013.5
SEA RIM ST PARK  2200   82     150/ 11/ 13 1013.4
NORTH JETTY/GLS  2230      82  140/ 14/ 16 1011.7
EAGLE POINT      2230   81 84  150/ 15/ 17 1011.6
MORGANS POINT    2230   83 80  140/  8/ 14 1011.8
MISSION/ARANSAS  2200   83                 1011.0
PORT O`CONNOR    2230   81     130/ 16/ 20 1010.3
PORT ARANSAS     2200   81 83  110/ 19/ 21 1011.1
MALAQUITE BEACH  2230   81 83  110/ 18/ 21 1010.7
BAFFIN BAY       2230   82 87              1010.1
PORT ISABEL      2230   85 85  290/  1/  6 1010.1
$$

GMZ080-GMZ150>470-290000-
OFFSHORE BUOY REPORTS

STATION/POSITION TIME  TEMP    WIND        PRES    WAVE
                       AIR SEA DIR/SP/G            HT/PER
                 (UTC) (F)     (DEG/KT/KT) (MB)    (FT/S)
20 E GALVESTON   2150   80 81  150/ 14/ 16 1012.8    3/ 6
90 E PT ARANSAS  2150   81 80   90/ 14/ 16 1012.1    4/ 7
35 NE PT MANSFLD 2250   81     120/ 17/ 19 1009.5    4/ 6
200 E PT ISABEL  2150   82 82  140/  6/  8 1012.7    3/ 6
$$




USA.gov is the U.S. government's official web portal to all federal, state and local government web resources and services.